STARLINK-11420, 62591

Orbit data source: Space-Track

STARLINK-11420, 62591 is a payload satellite owned by SpaceX/Seattle (US) in LEO that was launched on Mon, 13 Jan 2025 UTC via an FALCON 9 launch vehicle from the Air Force Eastern Test Range (AFETR). Payloads include a variety of satellites, spacecraft, and rockets equipped with specific instruments for various scientific and technological missions. These include communications satellites like Starlink; space stations such as the ISS; scientific satellites like the Hubble; Earth observation satellites from companies like Planet Labs, Umbra, and HawkEye 360; GPS; miniature CubeSats for education and research; and military/defense satellites.

Loading next visibility...
STARLINK-11420 details
Identifier
62591, 2025-008E
Orbit
LEO
Last TLE update1 day ago
Origin
Flag of USSpaceX/Seattle (US)
ManufacturerSpaceX/Seattle
MissionOperational spacecraft
Bus & MotorSTARLINK V2M, Unknown motor
Mass730 kg wet, ~700 kg dry
Launch date (UTC)
2025-01-13 (3 weeks ago)
Launch vehicle
FALCON 9
Launch site
Air Force Eastern Test Range (AFETR)
Object type
Payload
Rocket body
Debris
Shape & HBRUnknown
Radar Cross SectionLarge (>1 m²)

Expand to show TLE details & history

TLE from 1 day ago
0 STARLINK-11420
1 62591U 25008E   25035.29795962  .00003255  00000-0  21562-4 0  9997
2 62591  42.9991   9.6933 0001586 253.9892 106.0803 15.77860009  4619
Epoch: 2025-02-04T07:09Z
Definitive object data (Epoch: 2025-02-04T07:09:03.711Z)
Latitude-0.00004°
Longitude127.72253°
Altitude336.57 km
Speed7.708 km/s
True Right ascension00h 38m 46s
True Declination0° 00' 00"
Sunlit
Object was in daylight at TLE epoch
Visualization TLE readout
Latitude-26.16546°
Longitude-26.70357°
Altitude342.232 km
Speed7.704 km/s
Apparent Right ascension17h 10m 14s
Apparent Declination-44° 14' 58"
Sunlit
Object is in daylight
Visualization observer readout
Local Sidereal Time08:54:15
Azimuth115.1° SE
Elevation-49.02°
Doppler factor1
Orbital elements
Apogee altitude339.558 km
Perigee altitude337.427 km
Semi-major axis6,716.63 km
Eccentricity0.0001586
Inclination42.9991°
RAAN9.6933°
Arg. of periapsis253.9892°
True anomaly106.09776°
Mean anomaly106.0803°
Eccentric anomaly106.08903°
Mean motion3.9429 °/min
BSTAR0.000021562
Orbital period91.3 mins
Loading maneuver chart data...
Loading historical data...
Loading historical data...
Loading historical data...
Loading historical data...
Loading historical data...
Loading historical data...
Loading historical data...

STARLINK-11420 Visibility forecast

Observer location: undefined°, undefined

Span
Click to sort rows by Start time (UTC) header in descending order
Start Az.
Max El. time (UTC)
Max El. Az.
Max El.
End time (UTC)
End Az.
4 mins2025-02-06 01:57:00.541Z247.556° W2025-02-06 01:59:00.541Z87.814° E43.216°2025-02-06 02:01:00.541Z72.957° E
4 mins2025-02-06 03:33:00.541Z295.478° NW2025-02-06 03:35:00.541Z27.086° NE31.492°2025-02-06 03:37:00.541Z69.669° E
4 mins2025-02-06 05:09:00.541Z296.904° NW2025-02-06 05:10:00.541Z322.087° NNW39.756°2025-02-06 05:13:00.541Z98.745° ESE
|